FW6799 Weather Reports


Display with metric or nautical units.
time (UTC)temp
F
wind
direction
speed
MPH
gust
MPH
rain 1hr
in
rain 24hr
in
rain mn
in
humidity
%
barometer
mb
20260510233117 66 112 10.0 17.0 0.00 0.00 0.00 39 1019.9
20260510231721 65 100 12.0 17.0 0.00 0.00 0.00 40 1019.8
20260510223544 62 116 9.0 17.0 0.00 0.00 0.00 42 1019.3
20260510221713 62 112 7.0 13.0 0.00 0.00 0.00 42 1019.1
20260510220048 62 110 9.0 14.0 0.00 0.00 0.00 41 1019.0
20260510211941 63 104 6.0 12.0 0.00 0.00 0.00 40 1018.4
20260510211746 63 104 6.0 12.0 0.00 0.00 0.00 40 1018.4
20260510210439 63 112 6.0 11.0 0.00 0.00 0.00 40 1018.4
20260510204611 63 97 7.0 11.0 0.00 0.00 0.00 39 1018.3
20260510201612 63 168 3.0 9.0 0.00 0.00 0.00 38 1018.1
20260510194825 63 119 6.0 11.0 0.00 0.00 0.00 38 1018.1
20260510194745 63 119 6.0 11.0 0.00 0.00 0.00 38 1018.1
20260510194659 63 119 6.0 11.0 0.00 0.00 0.00 38 1018.1
20260510193122 63 129 4.0 9.0 0.00 0.00 0.00 37 1018.0
20260510191601 64 148 6.0 11.0 0.00 0.00 0.00 37 1018.0
20260510190230 64 137 5.0 11.0 0.00 0.00 0.00 36 1018.1
20260510184650 65 153 6.0 12.0 0.00 0.00 0.00 35 1018.1
20260510184615 65 153 6.0 12.0 0.00 0.00 0.00 35 1018.1
20260510183111 66 160 8.0 12.0 0.00 0.00 0.00 35 1018.1
20260510181648 65 124 5.0 10.0 0.00 0.00 0.00 35 1018.2
20260510180140 65 136 5.0 10.0 0.00 0.00 0.00 36 1018.2
20260510174558 65 124 6.0 10.0 0.00 0.00 0.00 36 1018.3
20260510173207 64 122 5.0 10.0 0.00 0.00 0.00 36 1018.5
20260510173104 64 122 5.0 10.0 0.00 0.00 0.00 36 1018.5
20260510171642 64 120 5.0 9.0 0.00 0.00 0.00 36 1018.4
20260510170122 65 126 4.0 8.0 0.00 0.00 0.00 36 1018.5
20260510164608 65 120 4.0 8.0 0.00 0.00 0.00 35 1018.6
20260510163145 66 132 4.0 8.0 0.00 0.00 0.00 35 1018.7
20260510161708 66 124 4.0 7.0 0.00 0.00 0.00 35 1018.7
20260510161541 66 124 4.0 7.0 0.00 0.00 0.00 35 1018.7
20260510160112 66 134 5.0 9.0 0.00 0.00 0.00 34 1018.8
20260510154920 66 150 5.0 9.0 0.00 0.00 0.00 34 1018.7
20260510153100 66 133 4.0 8.0 0.00 0.00 0.00 33 1018.9
20260510151652 66 135 3.0 8.0 0.00 0.00 0.00 33 1018.9
20260510150105 66 133 5.0 9.0 0.00 0.00 0.00 32 1019.0
20260510144618 66 126 5.0 8.0 0.00 0.00 0.00 32 1019.3
20260510143222 66 125 4.0 9.0 0.00 0.00 0.00 32 1019.3
20260510141651 67 122 5.0 9.0 0.00 0.00 0.00 31 1019.2
20260510140117 67 128 4.0 8.0 0.00 0.00 0.00 30 1019.4
20260510134607 67 135 4.0 9.0 0.00 0.00 0.00 30 1019.4
20260510133055 67 139 3.0 8.0 0.00 0.00 0.00 30 1019.4
20260510131659 67 101 5.0 10.0 0.00 0.00 0.00 29 1019.4
20260510130047 68 151 6.0 9.0 0.00 0.00 0.00 28 1019.3
20260510124608 68 122 6.0 8.0 0.00 0.00 0.00 28 1019.2
20260510123045 67 143 4.0 9.0 0.00 0.00 0.00 28 1019.1
20260510121604 66 85 2.0 5.0 0.00 0.00 0.00 28 1018.9
20260510120049 66 122 2.0 5.0 0.00 0.00 0.00 28 1018.8
20260510114602 67 137 1.0 6.0 0.00 0.00 0.00 26 1018.8
20260510113050 68 133 0.0 5.0 0.00 0.00 0.00 25 1018.8
20260510111643 68 101 2.0 3.0 0.00 0.00 0.00 25 1018.6
20260510110056 69 149 0.0 7.0 0.00 0.00 0.00 24 1018.5
20260510104619 70 135 1.0 5.0 0.00 0.00 0.00 24 1018.1
20260510103053 71 111 0.0 4.0 0.00 0.00 0.00 23 1018.1
20260510101553 72 147 1.0 5.0 0.00 0.00 0.00 22 1017.9
20260510100056 73 135 1.0 3.0 0.00 0.00 0.00 22 1018.1
20260510094551 74 121 3.0 5.0 0.00 0.00 0.00 21 1018.0
20260510093048 75 95 1.0 9.0 0.00 0.00 0.00 20 1018.0
20260510091547 76 99 8.0 12.0 0.00 0.00 0.00 19 1017.7
20260510090046 77 97 7.0 17.0 0.00 0.00 0.00 19 1017.6
20260510084557 78 122 5.0 12.0 0.00 0.00 0.00 18 1017.3
20260510083057 78 106 12.0 16.0 0.00 0.00 0.00 17 1017.1
20260510081550 78 118 8.0 16.0 0.00 0.00 0.00 17 1017.1
20260510080048 79 112 10.0 23.0 0.00 0.00 0.00 17 1017.1
20260510074601 80 85 5.0 13.0 0.00 0.00 0.00 17 1017.2
20260510073048 80 134 7.0 18.0 0.00 0.00 0.00 17 1017.0
20260510071558 81 109 5.0 14.0 0.00 0.00 0.00 17 1017.1
20260510070053 80 93 9.0 19.0 0.00 0.00 0.00 16 1017.2
20260510064606 80 70 9.0 19.0 0.00 0.00 0.00 17 1017.2
20260510063100 80 129 8.0 17.0 0.00 0.00 0.00 17 1017.2
20260510061552 81 152 9.0 17.0 0.00 0.00 0.00 17 1017.3
20260510060055 81 92 7.0 20.0 0.00 0.00 0.00 17 1017.2
20260510054546 80 78 6.0 13.0 0.00 0.00 0.00 18 1017.3
20260510053051 79 124 4.0 16.0 0.00 0.00 0.00 18 1017.5
20260510051558 79 86 8.0 12.0 0.00 0.00 0.00 18 1017.6
20260510050052 80 130 4.0 12.0 0.00 0.00 0.00 18 1017.8
20260510044546 80 75 5.0 12.0 0.00 0.00 0.00 18 1018.0
20260510043050 79 104 9.0 15.0 0.00 0.00 0.00 19 1018.3
20260510041607 79 109 6.0 19.0 0.00 0.00 0.00 18 1018.5
20260510040054 79 102 7.0 17.0 0.00 0.00 0.00 19 1019.0
20260510034546 79 71 8.0 17.0 0.00 0.00 0.00 19 1019.2
20260510033050 78 129 10.0 16.0 0.00 0.00 0.00 19 1019.5
20260510031546 78 74 10.0 17.0 0.00 0.00 0.00 19 1019.7
20260510030051 77 66 11.0 17.0 0.00 0.00 0.00 19 1020.0
20260510024605 77 98 9.0 17.0 0.00 0.00 0.00 19 1020.1
20260510023050 75 135 9.0 18.0 0.00 0.00 0.00 20 1020.2
20260510021546 75 76 10.0 21.0 0.00 0.00 0.00 20 1020.5
20260510020053 75 92 10.0 17.0 0.00 0.00 0.00 20 1020.6
20260510014551 73 122 9.0 15.0 0.00 0.00 0.00 21 1021.0
20260510013102 72 112 7.0 14.0 0.00 0.00 0.00 23 1020.8
20260510011550 71 110 8.0 19.0 0.00 0.00 0.00 24 1020.8
20260510010100 71 95 10.0 18.0 0.00 0.00 0.00 24 1020.8
20260510004557 69 110 9.0 16.0 0.00 0.00 0.00 25 1020.7
20260510003055 69 118 9.0 17.0 0.00 0.00 0.00 26 1020.5
20260510001558 66 124 9.0 17.0 0.00 0.00 0.00 27 1020.6
20260510000132 64 92 8.0 17.0 0.00 0.00 0.00 28 1020.5